• In Kazakhstan
  • List of Countries
  • For 7 days
  • Water Temperature
  • Satellite Maps
  • Weather Map
  • News
  • Weather Widgets
  • user-avatar
    Login

    Hourly Weather Klagenfurt

    Today, 25 June, Tuesday

    Time Temperature Precipitation Wind Pressure Humidity
    00:00 +15°C° 0 mm 0 mps 695 mmHg 92%
    01:00 +15°C° 0 mm 0 mps 695 mmHg 93%
    02:00 +14°C° 0 mm 0 mps 695 mmHg 93%
    03:00 +14°C° 0 mm 0 mps 695 mmHg 93%
    04:00 +15°C° 0 mm 1 mps 694 mmHg 94%
    05:00 +16°C° 0 mm 0 mps 695 mmHg 91%
    06:00 +17°C° 0 mm 0 mps 695 mmHg 88%
    07:00 +19°C° 0 mm 0 mps 696 mmHg 85%
    08:00 +23°C° 0 mm 1 mps 696 mmHg 75%
    09:00 +25°C° 0 mm 1 mps 697 mmHg 66%
    10:00 +27°C° 0 mm 1 mps 697 mmHg 56%
    11:00 +28°C° 0 mm 1 mps 697 mmHg 53%
    12:00 +29°C° 0 mm 1 mps 697 mmHg 50%
    13:00 +30°C° 0 mm 1 mps 697 mmHg 47%
    14:00 +29°C° 0 mm 1 mps 697 mmHg 48%
    15:00 +29°C° 0 mm 1 mps 697 mmHg 50%
    16:00 +29°C° 0 mm 1 mps 697 mmHg 51%
    17:00 +27°C° 0 mm 1 mps 697 mmHg 61%
    18:00 +25°C° 0 mm 1 mps 697 mmHg 70%
    19:00 +24°C° 0 mm 1 mps 697 mmHg 80%
    20:00 +22°C° 0 mm 1 mps 697 mmHg 84%
    21:00 +21°C° 0 mm 1 mps 697 mmHg 87%
    22:00 +20°C° 0 mm 1 mps 697 mmHg 91%
    23:00 +19°C° 0 mm 1 mps 697 mmHg 91%

    Tomorrow, 26 June, Wednesday

    Time Temperature Precipitation Wind Pressure Humidity
    00:00 +17°C° 0 mm 0 mps 697 mmHg 92%
    01:00 +16°C° 0 mm 0 mps 697 mmHg 93%
    02:00 +16°C° 0 mm 0 mps 696 mmHg 93%
    03:00 +16°C° 0 mm 0 mps 696 mmHg 94%
    04:00 +16°C° 0 mm 0 mps 696 mmHg 94%
    05:00 +17°C° 0 mm 0 mps 696 mmHg 89%
    06:00 +19°C° 0 mm 0 mps 697 mmHg 84%
    07:00 +21°C° 0 mm 0 mps 697 mmHg 79%
    08:00 +25°C° 0 mm 1 mps 697 mmHg 71%
    09:00 +27°C° 0 mm 1 mps 698 mmHg 62%
    10:00 +29°C° 0 mm 1 mps 698 mmHg 54%
    11:00 +30°C° 0 mm 1 mps 698 mmHg 49%
    12:00 +31°C° 0 mm 1 mps 698 mmHg 44%
    13:00 +32°C° 0 mm 1 mps 698 mmHg 39%
    14:00 +32°C° 0 mm 1 mps 698 mmHg 40%
    15:00 +32°C° 0 mm 1 mps 698 mmHg 41%
    16:00 +32°C° 0 mm 1 mps 697 mmHg 42%
    17:00 +30°C° 0 mm 1 mps 697 mmHg 53%
    18:00 +28°C° 0 mm 1 mps 696 mmHg 64%
    19:00 +26°C° 0 mm 1 mps 696 mmHg 75%
    20:00 +24°C° 0 mm 1 mps 696 mmHg 78%
    21:00 +23°C° 0 mm 1 mps 696 mmHg 81%
    22:00 +21°C° 0 mm 1 mps 696 mmHg 83%
    23:00 +21°C° 0 mm 1 mps 696 mmHg 84%

    Day after tomorrow, 27 June, Thursday

    Time Temperature Precipitation Wind Pressure Humidity
    00:00 +21°C° 0 mm 1 mps 696 mmHg 84%
    01:00 +20°C° 0 mm 1 mps 696 mmHg 85%
    02:00 +20°C° 0 mm 1 mps 695 mmHg 85%
    03:00 +20°C° 0 mm 1 mps 695 mmHg 85%
    04:00 +19°C° 0 mm 1 mps 695 mmHg 85%
    05:00 +21°C° 0 mm 1 mps 695 mmHg 79%
    06:00 +23°C° 0 mm 1 mps 695 mmHg 74%
    07:00 +24°C° 0 mm 1 mps 695 mmHg 68%
    08:00 +27°C° 0 mm 1 mps 695 mmHg 60%
    09:00 +29°C° 0 mm 1 mps 696 mmHg 52%
    10:00 +32°C° 0 mm 1 mps 696 mmHg 43%
    11:00 +33°C° 0 mm 1 mps 696 mmHg 39%
    12:00 +34°C° 0 mm 1 mps 696 mmHg 35%
    13:00 +35°C° 0 mm 1 mps 696 mmHg 30%
    14:00 +35°C° 0 mm 1 mps 695 mmHg 31%
    15:00 +34°C° 0 mm 1 mps 695 mmHg 33%
    16:00 +34°C° 0 mm 1 mps 695 mmHg 34%
    17:00 +32°C° 0 mm 1 mps 694 mmHg 45%
    18:00 +29°C° 0 mm 1 mps 694 mmHg 57%
    19:00 +25°C° 0 mm 0 mps 693 mmHg 68%
    20:00 +23°C° 0.4 mm 0 mps 693 mmHg 71%
    21:00 +21°C° 0.4 mm 0 mps 693 mmHg 74%
    22:00 +20°C° 0.4 mm 0 mps 693 mmHg 77%
    23:00 +21°C° 0.4 mm 1 mps 693 mmHg 83%

    28 June, Friday

    Time Temperature Precipitation Wind Pressure Humidity
    00:00 +20°C° 0.4 mm 1 mps 693 mmHg 89%
    01:00 +19°C° 0.4 mm 1 mps 694 mmHg 95%
    02:00 +19°C° 0 mm 1 mps 693 mmHg 95%
    03:00 +18°C° 0 mm 1 mps 693 mmHg 95%
    04:00 +18°C° 0 mm 1 mps 693 mmHg 95%
    05:00 +18°C° 0 mm 1 mps 693 mmHg 92%
    06:00 +19°C° 0 mm 1 mps 693 mmHg 88%
    07:00 +19°C° 0 mm 1 mps 693 mmHg 84%
    08:00 +21°C° 0 mm 1 mps 693 mmHg 76%
    09:00 +23°C° 0 mm 1 mps 694 mmHg 67%
    10:00 +25°C° 0 mm 1 mps 694 mmHg 58%
    11:00 +26°C° 0 mm 1 mps 694 mmHg 54%
    12:00 +27°C° 0 mm 2 mps 694 mmHg 49%
    13:00 +28°C° 0 mm 2 mps 694 mmHg 45%
    14:00 +28°C° 0 mm 2 mps 694 mmHg 46%
    15:00 +28°C° 0 mm 2 mps 694 mmHg 47%
    16:00 +27°C° 0 mm 2 mps 694 mmHg 49%
    17:00 +26°C° 0 mm 2 mps 693 mmHg 59%
    18:00 +24°C° 0 mm 1 mps 693 mmHg 69%
    19:00 +22°C° 0 mm 1 mps 693 mmHg 79%
    20:00 +20°C° 0 mm 1 mps 693 mmHg 83%
    21:00 +19°C° 0 mm 1 mps 694 mmHg 86%
    22:00 +16°C° 0 mm 1 mps 694 mmHg 90%
    23:00 +16°C° 0 mm 1 mps 694 mmHg 91%

    29 June, Saturday

    Time Temperature Precipitation Wind Pressure Humidity
    00:00 +14°C° 0 mm 0 mps 694 mmHg 92%
    01:00 +14°C° 0 mm 0 mps 693 mmHg 93%
    02:00 +13°C° 0 mm 0 mps 693 mmHg 94%
    03:00 +13°C° 0 mm 0 mps 693 mmHg 95%
    04:00 +12°C° 0 mm 0 mps 693 mmHg 95%
    05:00 +14°C° 0 mm 0 mps 693 mmHg 89%
    06:00 +15°C° 0 mm 0 mps 693 mmHg 82%
    07:00 +17°C° 0 mm 0 mps 694 mmHg 76%
    08:00 +21°C° 0 mm 1 mps 694 mmHg 70%
    09:00 +22°C° 0 mm 1 mps 694 mmHg 63%
    10:00 +24°C° 0 mm 1 mps 694 mmHg 57%
    11:00 +25°C° 0 mm 1 mps 694 mmHg 52%
    12:00 +26°C° 0 mm 2 mps 694 mmHg 48%
    13:00 +27°C° 0 mm 2 mps 694 mmHg 44%
    14:00 +27°C° 0 mm 2 mps 694 mmHg 46%
    15:00 +27°C° 0 mm 2 mps 694 mmHg 47%
    16:00 +26°C° 0 mm 2 mps 694 mmHg 49%
    17:00 +25°C° 0 mm 1 mps 694 mmHg 58%
    18:00 +23°C° 0 mm 1 mps 693 mmHg 67%
    19:00 +21°C° 0 mm 1 mps 693 mmHg 76%
    20:00 +20°C° 0 mm 1 mps 693 mmHg 80%
    21:00 +18°C° 0 mm 1 mps 693 mmHg 84%
    22:00 +15°C° 0 mm 1 mps 693 mmHg 88%
    23:00 +15°C° 0 mm 1 mps 693 mmHg 88%

    30 June, Sunday

    Time Temperature Precipitation Wind Pressure Humidity
    00:00 +15°C° 0 mm 1 mps 693 mmHg 88%
    01:00 +13°C° 0 mm 0 mps 693 mmHg 88%
    02:00 +13°C° 0 mm 0 mps 693 mmHg 89%
    03:00 +12°C° 0 mm 0 mps 693 mmHg 90%
    04:00 +12°C° 0 mm 0 mps 692 mmHg 91%
    05:00 +14°C° 0 mm 0 mps 693 mmHg 84%
    06:00 +16°C° 0 mm 0 mps 693 mmHg 78%
    07:00 +18°C° 0 mm 0 mps 694 mmHg 72%
    08:00 +22°C° 0 mm 1 mps 694 mmHg 66%
    09:00 +23°C° 0 mm 1 mps 694 mmHg 61%
    10:00 +25°C° 0 mm 1 mps 694 mmHg 55%
    11:00 +27°C° 0 mm 1 mps 694 mmHg 52%
    12:00 +28°C° 0 mm 1 mps 694 mmHg 49%
    13:00 +29°C° 0 mm 1 mps 694 mmHg 46%
    14:00 +29°C° 0 mm 1 mps 694 mmHg 47%
    15:00 +28°C° 0 mm 1 mps 694 mmHg 48%
    16:00 +28°C° 0 mm 1 mps 694 mmHg 49%
    17:00 +26°C° 0 mm 1 mps 693 mmHg 58%
    18:00 +25°C° 0 mm 1 mps 693 mmHg 67%
    19:00 +23°C° 0 mm 1 mps 693 mmHg 76%
    20:00 +21°C° 0 mm 1 mps 693 mmHg 79%
    21:00 +20°C° 0 mm 1 mps 693 mmHg 81%
    22:00 +18°C° 0 mm 1 mps 693 mmHg 84%
    23:00 +18°C° 0 mm 1 mps 693 mmHg 85%
    Show more